CW8430 Weather Reports


time (UTC)temp
F
wind
direction
speed
knots
gust
knots
rain 1hr
in
rain 24hr
in
rain mn
in
humidity
%
barometer
mb
20260508152648 50 100 0.9 2.6 0.00 0.00 0.00 65 1018.8
20260508151616 48 95 2.6 3.5 0.00 0.00 0.00 65 1018.8
20260508150625 48 51 1.7 3.5 0.00 0.00 0.00 67 1018.8
20260508145619 47 44 1.7 3.5 0.00 0.00 0.00 68 1018.8
20260508144625 46 44 1.7 2.6 0.00 0.00 0.00 69 1018.9
20260508143650 45 44 0.9 2.6 0.00 0.00 0.00 73 1018.8
20260508142615 43 44 0.9 2.6 0.00 0.00 0.00 74 1018.7
20260508141643 42 44 0.9 1.7 0.00 0.00 0.00 74 1018.7
20260508140630 41 44 0.0 0.9 0.00 0.00 0.00 78 1018.7
20260508135620 40 44 1.7 2.6 0.00 0.00 0.00 80 1018.8
20260508134629 39 44 0.9 2.6 0.00 0.00 0.00 81 1018.7
20260508133616 37 44 0.0 0.0 0.00 0.00 0.00 84 1018.6
20260508132627 36 44 0.0 1.7 0.00 0.00 0.00 83 1018.5
20260508131612 35 44 0.9 1.7 0.00 0.00 0.00 84 1018.3
20260508130618 34 44 0.9 3.5 0.00 0.00 0.00 84 1018.2
20260508125612 32 290 0.9 2.6 0.00 0.00 0.00 82 1018.1
20260508124616 32 290 1.7 2.6 0.00 0.00 0.00 81 1018.0
20260508123618 32 263 1.7 3.5 0.00 0.00 0.00 80 1017.8
20260508122627 34 263 1.7 2.6 0.00 0.00 0.00 79 1017.8
20260508121629 34 263 2.6 2.6 0.00 0.00 0.00 79 1017.8
20260508120614 34 263 0.9 1.7 0.00 0.00 0.00 78 1017.7
20260508115626 35 263 0.9 5.2 0.00 0.00 0.00 77 1017.6
20260508114614 36 263 2.6 3.5 0.00 0.00 0.00 73 1017.4
20260508113644 36 161 0.0 1.7 0.00 0.00 0.00 73 1017.4
20260508112630 38 161 0.0 2.6 0.00 0.00 0.00 70 1017.4
20260508111614 39 161 0.0 2.6 0.00 0.00 0.00 70 1017.4
20260508110619 40 161 0.9 6.1 0.00 0.00 0.00 71 1017.4
20260508105619 39 209 2.6 4.3 0.00 0.00 0.00 73 1017.4
20260508104623 40 247 2.6 5.2 0.00 0.00 0.00 72 1017.4
20260508103631 40 166 5.2 7.0 0.00 0.00 0.00 73 1017.5
20260508102640 40 182 5.2 7.0 0.00 0.00 0.00 74 1017.4
20260508101628 39 185 4.3 6.1 0.00 0.00 0.00 74 1017.3
20260508100612 40 235 3.5 5.2 0.00 0.00 0.00 72 1017.3
20260508095624 40 191 6.1 8.7 0.00 0.00 0.00 73 1017.2
20260508094631 40 184 7.0 9.6 0.00 0.00 0.00 73 1017.1
20260508093637 39 219 3.5 6.1 0.00 0.00 0.00 72 1017.1
20260508092625 40 153 1.7 7.8 0.00 0.00 0.00 71 1016.9
20260508091614 40 204 5.2 7.0 0.00 0.00 0.00 69 1016.9
20260508090624 41 190 7.8 10.4 0.00 0.00 0.00 68 1016.8
20260508085618 40 240 3.5 6.1 0.00 0.00 0.00 68 1017.0
20260508084627 40 192 7.0 9.6 0.00 0.00 0.00 71 1017.0
20260508083652 41 225 3.5 7.0 0.00 0.00 0.00 70 1017.2
20260508082620 41 213 3.5 6.1 0.00 0.00 0.00 71 1017.3
20260508081648 41 234 3.5 7.8 0.00 0.00 0.00 71 1017.3
20260508080620 41 171 4.3 7.0 0.00 0.00 0.00 73 1017.4
20260508075613 41 234 2.6 5.2 0.00 0.00 0.00 72 1017.5
20260508074622 41 189 2.6 4.3 0.00 0.00 0.00 73 1017.5
20260508073649 41 242 2.6 4.3 0.00 0.00 0.00 72 1017.6
20260508072613 41 188 2.6 4.3 0.00 0.00 0.00 74 1017.6
20260508071619 41 173 4.3 6.1 0.00 0.00 0.00 72 1017.6
20260508070627 41 228 2.6 7.0 0.00 0.00 0.00 72 1017.6
20260508065620 41 205 3.5 4.3 0.00 0.00 0.00 73 1017.6
20260508064624 42 205 2.6 3.5 0.00 0.00 0.00 72 1017.6
20260508063635 43 202 2.6 4.3 0.00 0.00 0.00 71 1017.5
20260508062622 43 244 3.5 4.3 0.00 0.00 0.00 72 1017.5
20260508061629 43 211 2.6 3.5 0.00 0.00 0.00 72 1017.4
20260508060631 43 211 2.6 4.3 0.00 0.00 0.00 69 1017.4
20260508055644 45 219 3.5 6.1 0.00 0.00 0.00 68 1017.4
20260508054614 45 215 2.6 5.2 0.00 0.00 0.00 68 1017.5
20260508053623 45 187 2.6 6.1 0.00 0.00 0.00 67 1017.4
20260508052625 45 219 2.6 4.3 0.00 0.00 0.00 67 1017.5
20260508051633 46 205 3.5 5.2 0.00 0.00 0.00 67 1017.4
20260508050636 45 202 2.6 4.3 0.00 0.00 0.00 69 1017.4
20260508045614 46 170 3.5 5.2 0.00 0.00 0.00 68 1017.4
20260508044617 45 208 4.3 7.0 0.00 0.00 0.00 69 1017.3
20260508043626 45 188 3.5 5.2 0.00 0.00 0.00 70 1017.3
20260508042615 45 241 2.6 6.1 0.00 0.00 0.00 70 1017.3
20260508041623 46 263 4.3 6.1 0.00 0.00 0.00 67 1017.2
20260508040630 47 240 4.3 6.1 0.00 0.00 0.00 65 1017.3
20260508035644 47 211 3.5 5.2 0.00 0.00 0.00 68 1017.2
20260508034650 46 250 3.5 6.1 0.00 0.00 0.00 70 1017.3
20260508033620 46 257 4.3 6.1 0.00 0.00 0.00 70 1017.1
20260508032624 46 267 3.5 6.1 0.00 0.00 0.00 68 1017.0
20260508031612 48 263 5.2 7.0 0.00 0.00 0.00 63 1016.8
20260508030616 48 258 6.1 7.0 0.00 0.00 0.00 63 1016.7
20260508025643 49 268 4.3 6.1 0.00 0.00 0.00 61 1016.6
20260508024630 51 263 5.2 7.0 0.00 0.00 0.00 58 1016.5
20260508023632 51 263 5.2 6.1 0.00 0.00 0.00 58 1016.5
20260508022620 52 265 5.2 7.0 0.00 0.00 0.00 56 1016.4
20260508020648 57 259 4.3 6.1 0.00 0.00 0.00 48 1016.2
20260508015642 59 263 7.0 9.6 0.00 0.00 0.00 42 1016.2
20260508014627 59 273 6.1 11.3 0.00 0.00 0.00 42 1016.2
20260508013615 60 283 9.6 14.8 0.00 0.00 0.00 37 1016.2
20260508012619 61 286 11.3 14.8 0.00 0.00 0.00 36 1016.2
20260508011628 62 274 8.7 15.6 0.00 0.00 0.00 36 1016.1
20260508010632 62 273 10.4 14.8 0.00 0.00 0.00 36 1016.2
20260508005626 62 298 13.9 16.5 0.00 0.00 0.00 35 1016.2
20260508004636 62 302 13.0 20.0 0.00 0.00 0.00 34 1016.1
20260508003621 63 294 13.0 21.7 0.00 0.00 0.00 33 1016.1
20260508002631 63 305 11.3 20.0 0.00 0.00 0.00 33 1016.0
20260508001616 63 267 8.7 12.2 0.00 0.00 0.00 33 1016.0
20260508000614 62 257 7.8 14.8 0.00 0.00 0.00 34 1015.9
20260507235614 63 286 12.2 15.6 0.00 0.00 0.00 34 1016.0
20260507234623 63 310 10.4 17.4 0.00 0.00 0.00 31 1016.1
20260507233630 63 274 13.0 18.2 0.00 0.00 0.00 30 1016.3
20260507232615 64 265 9.6 19.1 0.00 0.00 0.00 32 1016.3
20260507231623 63 278 9.6 14.8 0.00 0.00 0.00 31 1016.2
20260507230635 62 273 11.3 18.2 0.00 0.00 0.00 32 1016.4
20260507225651 63 293 14.8 22.6 0.00 0.00 0.00 28 1016.3
20260507224621 62 304 12.2 20.0 0.00 0.00 0.00 32 1016.7
20260507223650 62 243 7.8 14.8 0.00 0.00 0.00 31 1016.8
20260507222616 62 261 9.6 16.5 0.00 0.00 0.00 34 1017.0
20260507221627 60 250 7.8 11.3 0.00 0.00 0.00 35 1017.2
20260507220613 60 262 8.7 15.6 0.00 0.00 0.00 37 1017.4
20260507215629 60 273 7.8 14.8 0.00 0.00 0.00 37 1017.5
20260507214616 60 224 6.1 12.2 0.00 0.00 0.00 37 1017.6
20260507213625 60 246 9.6 14.8 0.00 0.00 0.00 38 1017.8
20260507212636 60 250 8.7 12.2 0.00 0.00 0.00 37 1017.8
20260507211622 59 263 9.6 13.0 0.00 0.00 0.00 40 1017.9
20260507210631 60 266 11.3 14.8 0.00 0.00 0.00 37 1017.9
20260507205626 60 256 9.6 14.8 0.00 0.00 0.00 39 1017.9
20260507204615 60 249 9.6 13.9 0.00 0.00 0.00 37 1018.0
20260507203619 60 275 11.3 14.8 0.00 0.00 0.00 40 1018.0
20260507202625 61 254 9.6 15.6 0.00 0.00 0.00 37 1018.0
20260507201628 61 261 8.7 16.5 0.00 0.00 0.00 37 1018.0
20260507200621 61 275 12.2 17.4 0.00 0.00 0.00 37 1017.9
20260507195617 62 249 12.2 15.6 0.00 0.00 0.00 37 1017.9
20260507194643 62 271 13.9 18.2 0.00 0.00 0.00 37 1017.8
20260507193630 62 275 12.2 18.2 0.00 0.00 0.00 35 1017.7
20260507192619 62 265 10.4 13.9 0.00 0.00 0.00 38 1017.9
20260507191628 63 245 11.3 15.6 0.00 0.00 0.00 35 1017.8
20260507190615 63 286 9.6 19.1 0.00 0.00 0.00 39 1017.9
20260507185630 62 271 13.0 18.2 0.00 0.00 0.00 39 1018.0
20260507184617 62 275 11.3 19.1 0.00 0.00 0.00 35 1017.9
20260507183644 63 253 12.2 17.4 0.00 0.00 0.00 33 1018.0
20260507182650 64 258 11.3 18.2 0.00 0.00 0.00 35 1018.0
20260507181618 63 250 13.0 17.4 0.00 0.00 0.00 36 1018.1
20260507180624 63 269 13.9 19.1 0.00 0.00 0.00 36 1018.2
20260507175621 63 282 10.4 15.6 0.00 0.00 0.00 34 1018.2
20260507174631 62 264 11.3 18.2 0.00 0.00 0.00 34 1018.2
20260507173621 62 256 12.2 17.4 0.00 0.00 0.00 34 1018.3
20260507172646 61 298 8.7 14.8 0.00 0.00 0.00 37 1018.2
20260507171616 60 257 9.6 14.8 0.00 0.00 0.00 35 1018.2
20260507170631 59 223 9.6 16.5 0.00 0.00 0.00 34 1018.4
20260507165613 60 220 8.7 14.8 0.00 0.00 0.00 34 1018.4
20260507164621 59 225 9.6 15.6 0.00 0.00 0.00 33 1018.4
20260507163628 59 246 10.4 17.4 0.00 0.00 0.00 33 1018.6
20260507162643 58 255 5.2 11.3 0.00 0.00 0.00 39 1018.7
20260507161629 56 184 3.5 8.7 0.00 0.00 0.00 45 1018.7
20260507160616 55 192 2.6 4.3 0.00 0.00 0.00 44 1018.8
20260507155614 54 225 0.9 7.0 0.00 0.04 0.00 46 1019.0
20260507154622 54 163 4.3 6.1 0.00 0.04 0.00 45 1019.1
20260507153630 53 159 2.6 5.2 0.00 0.04 0.00 47 1019.2